Regional Weather Roundup
Issued by NWS Charleston, SC

Current Version | Previous Version | Graphics & Text | Print | Product List | Glossary On
Versions: 1 2 3 4 5 6 7 8 9 10 11 12 13 14 15 16 17 18 19 20 21 22 23 24 25 26 27 28 29 30 31 32 33 34 35 36 37 38 39 40 41 42 43 44 45 46 47 48 49 50
000
ASUS42 KCHS 010713
RWRCHS

REGIONAL WEATHER ROUNDUP
NATIONAL WEATHER SERVICE CHARLESTON SC
300 AM EDT SUN MAY 01 2016

NOTE: "FAIR" INDICATES FEW OR NO CLOUDS BELOW 12,000 FEET WITH NO
SIGNIFICANT WEATHER AND/OR OBSTRUCTIONS TO VISIBILITY.

NOT ALL STATIONS ARE QUALITY CONTROLLED. USE DATA WITH CAUTION...
ESPECIALLY DEWPOINT OBSERVATIONS.

SCZ027-030-031-034>040-042>050-010800-
...SOUTHEAST SOUTH CAROLINA...

CITY           SKY/WX    TMP DP  RH WIND       PRES   REMARKS
N CHARLESTON   CLOUDY    73  67  81 SE9       30.05S
WATERFRONT PRK   N/A     73  70  90 SE8       30.03F
MOUNT PLEASANT FAIR      72  68  88 SE7       30.06S
JOHNS ISLAND   PTSUNNY   73  68  83 SE8       30.05F
PINOPOLIS        N/A     72  68  88 CALM      29.99R
MONCKS CORNER  FAIR      66  63  88 CALM      30.06S
SUMMERVILLE    FAIR      70  70 100 CALM      30.06F
BEAUFORT MCAS  MOCLDY    76  70  82 SE6       30.04F
BEAUFORT ARPT  PTSUNNY   73  68  83 SE6       30.04S
HILTON HEAD IS CLOUDY    75  72  88 SE5       30.05F
WALTERBORO     CLOUDY    72  72 100 E3        30.06S
ALLENDALE      PTSUNNY   72  68  88 VRB5      30.02F

...SOUTHERN MIDLANDS AND PEE DEE...

CITY           SKY/WX    TMP DP  RH WIND       PRES   REMARKS
GEORGETOWN     FAIR      68  64  88 SE8       30.08F
KINGSTREE      CLOUDY    68  63  83 E6        30.07F
ORANGEBURG     CLOUDY    71  67  87 SE7       30.05F
BARNWELL       PTSUNNY   73  73 100 SE7       30.03F
AIKEN          CLOUDY    70  64  83 SE8       30.05F
MANNING        NOT AVBL
COLUMBIA       CLOUDY    72  66  81 E8        30.04F
SUMTER         CLOUDY    69  64  86 SE6       30.05S
FLORENCE       CLOUDY    66  62  87 E7        30.09F
MYRTLE BEACH   CLOUDY    70  63  78 SE9       30.09F
N MYRTLE BEACH CLOUDY    70  67  90 SE7       30.08F

$$

GAZ063-065-086>088-099>101-113>116-118-119-134>141-150-010800-
...SOUTHEAST GEORGIA...

CITY           SKY/WX    TMP DP  RH WIND       PRES   REMARKS
SAVANNAH ARPT  CLOUDY    75  70  84 SE6       30.03F
HUNTER AAF     CLOUDY    75  74  98 SE5       30.01F
FORT STEWART   CLOUDY    73  71  94 CALM      30.01F
STATESBORO     CLOUDY    75  74  95 SE5       30.01F
SYLVANIA       CLOUDY    72  71  95 SE5       30.02F
CLAXTON        FAIR      73  73  99 E7        30.01F

...CSRA...CENTRAL AND FAR SOUTHEAST GEORGIA...

CITY           SKY/WX    TMP DP  RH WIND       PRES   REMARKS
THOMSON        CLOUDY    75  71  89 SE6       30.04F
AUGUSTA-BUSH   CLOUDY    72  68  87 SE8       29.99F
AUGUSTA-DANIEL CLOUDY    73  67  81 SE9       30.01F
SWAINSBORO     PTSUNNY   72  70  94 SE10      29.99F
VIDALIA        CLOUDY    72  70  94 SE7       29.99F
EASTMAN        FAIR      70  70 100 S3        30.00F
HAZLEHURST     FAIR      74  73  99 SE7       29.97F
ALMA           CLOUDY    71  70  96 SE5       29.99F
WAYCROSS       MOCLDY    73  70  93 SE5       30.00F
JESUP          CLOUDY    75  73  94 N3        30.02F
BAXLEY         FAIR      73  72  94 SE6       29.99F
BRUNSWICK      MOCLDY    77  72  83 SE5       30.02F
SAINT SIMONS   MOCLDY    74  72  93 SE7       30.02F

$$

SCZ027-028-034-036>038-045-046-048>050-GAZ119-141-010800-
...LAKE AND SUPPLEMENTAL COASTAL OBSERVATIONS...

STATION/POSITION TIME  TEMP    WIND        PRES    WAVE   SWELL
                       AIR SEA DIR/SP/G            HT/PER HT/PER/DIR
                 (UTC) (F)     (DEG/KT/KT) (MB)    (FT/S) (FT/S/D)
WINYAH BAY       NOT AVBL
LAKE MURRAY      0600   71     140/  7/ 10 1017.3S
ACE BASIN NERRS  NOT AVBL
FORT PULASKI     0600   75 73  140/  5/  9 1017.7F
SAPELO ISLAND    0600   75     150/  4     1017.0S

$$

ANZ835-935-AMZ111-154-330-350-352-354-370-450-454-472-010800-
...C-MAN AND BUOY OBSERVATIONS...

STATION/POSITION TIME  TEMP    WIND        PRES    WAVE   SWELL
                       AIR SEA DIR/SP/G            HT/PER HT/PER/DIR
                 (UTC) (F)     (DEG/KT/KT) (MB)    (FT/S) (FT/S/D)
BUOY 41004       0650   74 73  130/ 17/ 23 1016.9F   5/ 5   2/10
BUOY 41008       NOT AVBL
FOLLY BEACH CMAN 0600   72     130/ 10/ 12 1018.0F
CAPERS NEARSHORE 0608   73 71  130/ 14/ 19 1017.4F
FRIPP NEARSHORE  0608   74 73  130/ 12/ 16 1016.4F


STATION/POSITION TIME  TEMP    WIND        PRES    WAVE   SWELL
                       AIR SEA DIR/SP/G            HT/PER HT/PER/DIR
                 (UTC) (F)     (DEG/KT/KT) (MB)    (FT/S) (FT/S/D)
5E ST. MARYS GA  0621      74                N/A     2/10
FRYING PAN BUOY  0600   72 70  130/ 16/ 19 1018.8F
BUOY 41025       0650   68 73   60/  8/ 16 1019.2F   6/10   5/ 60/10
CAPE LOOKOUT NC  0600   64      50/ 11/ 12 1019.7F
BUOY 41002       0650   71      90/ 14/ 16 1019.8F   5/10   5/ 10/10
BUOY 41010       0620   77 77  100/  8/ 10 1017.4F
ST AUGUSTINE FL  0700   72 71  170/  6/  6 1017.1F


$$




USA.gov is the U.S. government's official web portal to all federal, state and local government web resources and services.